STARLINK-1947 (46797 NORAD) Tracking and Keplerian Element Data

This shows tracking and keplerian element data for the satellite.

Feedback or suggestion? Click here.




ElementValue
Catalog46797
NameSTARLINK-1947
Epoch Orbit534
Epoch Day331.16668981
Epoch Year2020
RAAN0.7937
Inclination53.0551
Eccentricity0.0001131
Argument of Perigee74.1765
Mean Anonmoly126.8568
Mean Motion15.62764673
Decay Rate0.00041193
L11 46797U 20074BL 20331.16668981 .00041193 00000-0 45323-3 0 9998
L22 46797 53.0551 0.7937 0001131 74.1765 126.8568 15.62764673 5341

Live tracking and technical data element details for STARLINK-1947 (NORAD 46797). STARLINK-1947 can be tracked NOW for your location showing map with azimuth and elevation plus other details from your city location.

Track the satellite on the map from your city or location and see movement details for azimuth, elevation, latitude, longitude, range, height, and movement on the map or in text.







IsCatalogInMostPopularTable: catalog: 46797, numindb: 8
Update: records affected: 1



GetName: 46797 STARLINK-1947

Hit Count: updated at: Thu, 26 Nov 2020 17:29:57 GMT